Regional Weather Roundup
Issued by NWS

Home | Current Version | Previous Version | Graphics & Text | Print | Product List | Glossary On
Versions: 1 2 3 4 5 6 7 8 9 10 11 12 13 14 15 16 17 18 19 20 21 22 23 24 25 26 27 28 29 30 31 32 33 34 35 36 37 38 39 40 41 42 43 44 45 46 47 48 49 50
000
ASUS43 KIND 011759
RWRIN

WEATHER ROUNDUP FOR INDIANA
NATIONAL WEATHER SERVICE INDIANAPOLIS IN
100 PM EST SUN FEB 01 2015

NOTE: "FAIR" INDICATES FEW OR NO CLOUDS BELOW 12,000 FEET WITH NO
SIGNIFICANT WEATHER AND/OR OBSTRUCTIONS TO VISIBILITY.

* - STATION DOES NOT REPORT WEATHER SUCH AS PRECIPITATION OR FOG.

+ - STATION NOT QUALITY CONTROLLED BY THE NATIONAL WEATHER SERVICE.
    USE DATA WITH CAUTION...ESPECIALLY DEWPOINT AND RELATIVE
    HUMIDITY OBSERVATIONS.

INZ001>003-010>013-019-020-011900-
NORTHWEST INDIANA

CITY           SKY/WX    TMP DP  RH WIND       PRES   REMARKS
GARY /AIRPORT/ SNOW      32  30  93 NE17      29.78F VSB 1/2 WCI  21
VALPARAISO     NOT AVBL

$$

LMZ046-743>745-011900-
SOUTHERN LAKE MICHIGAN

STATION/POSITION TIME  TEMP WIND        PRES
                       AIR  DIR/SP/G
                 (UTC) (F)  (DEG/KT/KT) (MB)
MICHIGAN CITY    1700   28   50/ 18/ 21   N/A

$$

INZ004-005-014>016-021>024-011900-
NORTH CENTRAL INDIANA

CITY           SKY/WX    TMP DP  RH WIND       PRES   REMARKS
GOSHEN         SNOW      27  24  89 E20       29.83F VSB 1/4 WCI  13
6HR MIN TEMP:  27; 6HR MAX TEMP:  32; 6HR PCP:  0.21;

PERU/GRISSOM   LGT SNOW  32  32 100 SE15      29.76F FOG     WCI  22
SOUTH BEND     SNOW      29  25  85 E13G24    29.83F VSB 1/2 WCI  19
6HR MIN TEMP:  29; 6HR MAX TEMP:  31; 6HR PCP:  0.51;


$$

INZ006>009-017-018-025>027-011900-
NORTHEAST INDIANA

CITY           SKY/WX    TMP DP  RH WIND       PRES   REMARKS
ANGOLA *+      CLOUDY    23  21  93 E15       29.87F VSB 1/2 WCI  10
FORT WAYNE     HVY SNOW  32  32 100 E14       29.83F VSB 1/4 WCI  22
6HR MIN TEMP:  32; 6HR MAX TEMP:  34; 6HR PCP:  0.23;


$$

INZ028-029-035-036-043>045-051>053-011900-
WEST CENTRAL INDIANA

CITY           SKY/WX    TMP DP  RH WIND       PRES   REMARKS
GREENCASTLE +  CLOUDY    32  30  93 SE7       29.74F FOG     WCI  26
LAFAYETTE      LGT SNOW  32  31  96 E8        29.73F FOG     WCI  25
6HR MIN TEMP:  31; 6HR MAX TEMP:  33; 6HR PCP:  0.18;

TERRE HAUTE    LGT RAIN  34  33  96 SE8       29.71F FOG     WCI  27
6HR MIN TEMP:  33; 6HR MAX TEMP:  35; 6HR PCP:  0.27;


$$

INZ030>032-037>040-046>048-054>057-064-065-011900-
CENTRAL INDIANA

CITY           SKY/WX    TMP DP  RH WIND       PRES   REMARKS
COLUMBUS       LGT RAIN  36  32  87 S7        29.78F FOG
INDIANAPOLIS   LGT RAIN  31  30  96 E8        29.74F FOG     WCI  23
6HR MIN TEMP:  30; 6HR MAX TEMP:  32; 6HR PCP:  0.16;

-EAGLE CREEK   CLOUDY    33  31  92 SE7       29.74F WCI  27
6HR MIN TEMP:  32; 6HR MAX TEMP:  35; 6HR PCP:  0.13;

KOKOMO *+      CLOUDY    34  30  86 SE12      29.77F VSB 3/4 WCI  25
6HR MIN TEMP:  34; 6HR MAX TEMP:  34; 6HR PCP:  0.09;

MT COMFORT *+  CLOUDY    34 N/A N/A E7        29.77F WCI  28
SHELBYVILLE    RAIN      36  33  89 SE7       29.77F FOG
6HR MIN TEMP:  35; 6HR MAX TEMP:  38; 6HR PCP:  0.25;


$$

INZ033-034-041-042-049-050-058-059-011900-
EAST CENTRAL INDIANA

CITY           SKY/WX    TMP DP  RH WIND       PRES   REMARKS
MUNCIE         HVY SNOW  33  32  96 SE8       29.79F VSB 1/4 WCI  26
6HR MIN TEMP:  33; 6HR MAX TEMP:  36; 6HR PCP:  0.06;


$$

INZ060-061-067>069-081>083-085>088-011900-
SOUTHWEST INDIANA

CITY           SKY/WX    TMP DP  RH WIND       PRES   REMARKS
EVANSVILLE     LGT RAIN  44  41  89 S8        29.74F FOG
6HR MIN TEMP:  42; 6HR MAX TEMP:  45; 6HR PCP:  0.48;

HUNTINGBURG *+ CLOUDY    41  37  87 S12G18    29.76F
6HR MIN TEMP:  39; 6HR MAX TEMP:  45; 6HR PCP:  0.25;


$$

INZ062-063-066-070>080-084-089>092-011900-
SOUTH CENTRAL AND SOUTHEAST INDIANA

CITY           SKY/WX    TMP DP  RH WIND       PRES   REMARKS
BLOOMINGTON    LGT RAIN  36  35  96 SE7       29.73F FOG
6HR MIN TEMP:  34; 6HR MAX TEMP:  36; 6HR PCP:  0.29;

SEYMOUR +      RAIN      37  37 100 SE7       29.76F

$$



USA.gov is the U.S. government's official web portal to all federal, state and local government web resources and services.